Tracking 18871 objects as of 13-Dec-2017
HD Live streaming from Space Station
objects crossing your sky now

CRRES DEB (CANISTER)

Track CRRES DEB (CANISTER) now!


NORAD ID: 27051
Int'l Code: 1990-065U
Perigee: 343.6 km
Apogee: 30,145.5 km
Inclination: 18.0 °
Period: 527.1 minutes
Semi major axis: 21615 km
RCS: 0.1304 m2 (medium)
Launch date: July 25, 1990
Source: United States (US)
Launch site: AIR FORCE EASTERN TEST RANGE (AFETR)

Note: This is SATELLITE DEBRIS
aabbcc
Your satellite tracking list
Your tracking list is empty




NASA's NSSDC Master Catalog

Two Line Element Set (TLE):
1 27051U 90065U   17346.52743604  .00000274  00000-0  12993-3 0  9997
2 27051  17.9785 138.4112 6893641  23.4019 356.7649  2.73183419174246
Source of the keplerian elements: AFSPC